Tracking 17141 objects as of 7-July-2015
HD Live streaming from Space Station

COSMOS 2251 DEB

Track COSMOS 2251 DEB now!
10-day predictions
COSMOS 2251 DEB is classified as:


NORAD ID: 38196
Int'l Code: 1993-036BSL
Perigee: 630.4 km
Apogee: 934.0 km
Inclination: 73.9 °
Period: 100.3 minutes
Semi major axis: 7153 km
RCS: 0.0033 m2 (small)
Launch date: June 16, 1993
Source: Commonwealth of Independent States (former USSR) (CIS)

Note: This is SATELLITE DEBRIS
Your satellite tracking list
Your tracking list is empty





NASA's NSSDC Master Catalog

Two Line Element Set (TLE):
1 38196U 93036BSL 15184.23931775  .00006106  00000-0  16681-2 0  9991
2 38196 073.8951 140.5313 0212202 037.4638 024.5642 14.34996748225703

Source of the keplerian elements: AFSPC

N2YO: 250